Time,TemperatureF,DewpointF,PressureIn,WindDirection,WindDirectionDegrees,WindSpeedMPH,WindSpeedGustMPH,Humidity,HourlyPrecipIn,Conditions,Clouds,dailyrainin,SoftwareType,DateUTC
2013-02-04 00:00:00,25.3,23.0,29.71,NW,315,4.2,11.4,85,0.00,,,0.00,Rainwise IP-100,2013-02-04 05:00:00,
2013-02-04 00:05:00,25.3,23.0,29.71,NW,315,3.0,9.8,85,0.00,,,0.00,Rainwise IP-100,2013-02-04 05:05:00,
2013-02-04 00:10:00,25.2,23.0,29.71,NNW,337,1.9,9.8,85,0.00,,,0.00,Rainwise IP-100,2013-02-04 05:10:00,
2013-02-04 00:15:00,25.2,23.0,29.72,WNW,292,1.6,8.4,86,0.00,,,0.00,Rainwise IP-100,2013-02-04 05:15:00,
2013-02-04 00:20:00,25.1,23.0,29.72,WNW,292,3.0,9.3,86,0.00,,,0.00,Rainwise IP-100,2013-02-04 05:20:00,
2013-02-04 00:25:00,25.1,23.0,29.72,NNW,337,2.3,7.2,86,0.00,,,0.00,Rainwise IP-100,2013-02-04 05:25:00,
2013-02-04 00:30:00,25.1,23.0,29.72,WNW,292,6.5,10.3,86,0.00,,,0.00,Rainwise IP-100,2013-02-04 05:30:00,
2013-02-04 00:35:00,25.1,23.0,29.72,NW,315,1.6,6.5,86,0.00,,,0.00,Rainwise IP-100,2013-02-04 05:35:00,
2013-02-04 00:40:00,25.1,23.0,29.72,NW,315,5.1,6.5,86,0.00,,,0.00,Rainwise IP-100,2013-02-04 05:40:00,
2013-02-04 00:45:00,25.2,23.0,29.72,NNW,337,2.6,7.5,86,0.00,,,0.00,Rainwise IP-100,2013-02-04 05:45:00,
2013-02-04 00:50:00,25.2,23.0,29.72,NNW,337,1.9,9.1,86,0.00,,,0.00,Rainwise IP-100,2013-02-04 05:50:00,
2013-02-04 00:55:00,25.2,23.0,29.72,WNW,292,5.6,7.0,86,0.00,,,0.00,Rainwise IP-100,2013-02-04 05:55:00,
2013-02-04 01:00:00,25.2,23.0,29.72,NW,315,4.7,6.1,86,0.00,,,0.00,Rainwise IP-100,2013-02-04 06:00:00,
2013-02-04 01:05:00,25.1,23.0,29.72,North,360,0.0,6.5,86,0.00,,,0.00,Rainwise IP-100,2013-02-04 06:05:00,
2013-02-04 01:10:00,25.1,23.0,29.72,West,270,6.8,6.8,86,0.00,,,0.00,Rainwise IP-100,2013-02-04 06:10:00,
2013-02-04 01:15:00,24.9,23.0,29.72,West,270,2.1,6.8,86,0.00,,,0.00,Rainwise IP-100,2013-02-04 06:15:00,
2013-02-04 01:20:00,24.8,23.0,29.72,NW,315,1.2,4.7,86,0.00,,,0.00,Rainwise IP-100,2013-02-04 06:20:00,
2013-02-04 01:25:00,24.7,23.0,29.72,WNW,292,0.0,4.4,86,0.00,,,0.00,Rainwise IP-100,2013-02-04 06:25:00,
2013-02-04 01:30:00,24.6,23.0,29.72,West,270,0.0,4.9,87,0.00,,,0.00,Rainwise IP-100,2013-02-04 06:30:00,
2013-02-04 01:35:00,24.4,21.0,29.72,NW,315,0.0,4.4,87,0.00,,,0.00,Rainwise IP-100,2013-02-04 06:35:00,
2013-02-04 01:40:00,24.4,21.0,29.72,WSW,247,3.3,6.5,87,0.00,,,0.00,Rainwise IP-100,2013-02-04 06:40:00,
2013-02-04 01:45:00,24.5,23.0,29.72,WSW,247,4.2,7.5,87,0.00,,,0.00,Rainwise IP-100,2013-02-04 06:45:00,
2013-02-04 01:50:00,24.6,23.0,29.72,WNW,292,0.0,7.2,86,0.00,,,0.00,Rainwise IP-100,2013-02-04 06:50:00,
2013-02-04 01:55:00,24.6,23.0,29.71,WSW,247,7.9,7.9,85,0.00,,,0.00,Rainwise IP-100,2013-02-04 06:55:00,
2013-02-04 02:00:00,24.5,23.0,29.71,West,270,4.7,7.9,85,0.00,,,0.00,Rainwise IP-100,2013-02-04 07:00:00,
2013-02-04 02:05:00,24.4,21.0,29.72,WNW,292,2.6,7.2,84,0.00,,,0.00,Rainwise IP-100,2013-02-04 07:05:00,
2013-02-04 02:10:00,24.4,21.0,29.72,NNW,337,0.0,7.7,83,0.00,,,0.00,Rainwise IP-100,2013-02-04 07:10:00,
2013-02-04 02:15:00,24.3,21.0,29.72,WSW,247,2.1,5.1,83,0.00,,,0.00,Rainwise IP-100,2013-02-04 07:15:00,
2013-02-04 02:18:00,24.1,21.0,29.72,WNW,292,3.3,4.0,82,0.00,,,0.00,Rainwise IP-100,2013-02-04 07:18:00,
2013-02-04 02:23:00,24.0,21.0,29.72,NW,315,0.0,9.1,81,0.00,,,0.00,Rainwise IP-100,2013-02-04 07:23:00,
2013-02-04 02:29:00,23.9,18.0,29.72,WNW,292,3.7,4.0,80,0.00,,,0.00,Rainwise IP-100,2013-02-04 07:29:00,
2013-02-04 02:34:00,24.0,18.0,29.72,West,270,1.4,5.8,79,0.00,,,0.00,Rainwise IP-100,2013-02-04 07:34:00,
2013-02-04 02:39:00,23.9,18.0,29.72,West,270,4.4,6.8,78,0.00,,,0.00,Rainwise IP-100,2013-02-04 07:39:00,
2013-02-04 02:44:00,24.0,18.0,29.71,West,270,1.9,8.4,77,0.00,,,0.00,Rainwise IP-100,2013-02-04 07:44:00,
2013-02-04 02:49:00,24.1,18.0,29.72,WNW,292,4.9,9.3,76,0.00,,,0.00,Rainwise IP-100,2013-02-04 07:49:00,
2013-02-04 02:54:00,24.3,18.0,29.72,NW,315,4.2,7.0,74,0.00,,,0.00,Rainwise IP-100,2013-02-04 07:54:00,
2013-02-04 02:59:00,24.5,18.0,29.71,NW,315,5.8,10.0,73,0.00,,,0.00,Rainwise IP-100,2013-02-04 07:59:00,
2013-02-04 03:04:00,24.5,18.0,29.71,NW,315,1.6,10.5,72,0.00,,,0.00,Rainwise IP-100,2013-02-04 08:04:00,
2013-02-04 03:09:00,24.5,18.0,29.72,WNW,292,3.3,7.9,71,0.00,,,0.00,Rainwise IP-100,2013-02-04 08:09:00,
2013-02-04 03:14:00,24.5,18.0,29.71,WSW,247,4.4,8.2,71,0.00,,,0.00,Rainwise IP-100,2013-02-04 08:14:00,
2013-02-04 03:19:00,24.5,18.0,29.72,West,270,2.8,9.8,70,0.00,,,0.00,Rainwise IP-100,2013-02-04 08:19:00,
2013-02-04 03:24:00,24.5,18.0,29.72,West,270,4.9,7.2,70,0.00,,,0.00,Rainwise IP-100,2013-02-04 08:24:00,
2013-02-04 03:29:00,24.4,16.0,29.72,WNW,292,0.0,7.9,70,0.00,,,0.00,Rainwise IP-100,2013-02-04 08:29:00,
2013-02-04 03:34:00,24.2,16.0,29.72,West,270,1.9,4.4,70,0.00,,,0.00,Rainwise IP-100,2013-02-04 08:34:00,
2013-02-04 03:39:00,24.1,16.0,29.72,NW,315,3.3,9.6,70,0.00,,,0.00,Rainwise IP-100,2013-02-04 08:39:00,
2013-02-04 03:44:00,24.1,16.0,29.72,West,270,3.3,6.8,70,0.00,,,0.00,Rainwise IP-100,2013-02-04 08:44:00,
2013-02-04 03:49:00,24.2,16.0,29.72,NW,315,5.1,10.0,70,0.00,,,0.00,Rainwise IP-100,2013-02-04 08:49:00,
2013-02-04 03:54:00,24.3,16.0,29.72,WNW,292,4.0,8.9,69,0.00,,,0.00,Rainwise IP-100,2013-02-04 08:54:00,
2013-02-04 03:59:00,24.4,16.0,29.72,WNW,292,0.0,7.5,69,0.00,,,0.00,Rainwise IP-100,2013-02-04 08:59:00,
2013-02-04 04:04:00,24.2,16.0,29.72,NW,315,3.5,5.6,69,0.00,,,0.00,Rainwise IP-100,2013-02-04 09:04:00,
2013-02-04 04:09:00,24.1,16.0,29.73,WNW,292,2.1,5.6,69,0.00,,,0.00,Rainwise IP-100,2013-02-04 09:09:00,
2013-02-04 04:14:00,23.9,16.0,29.72,WNW,292,1.2,5.6,69,0.00,,,0.00,Rainwise IP-100,2013-02-04 09:14:00,
2013-02-04 04:19:00,23.9,16.0,29.73,West,270,2.3,7.9,69,0.00,,,0.00,Rainwise IP-100,2013-02-04 09:19:00,
2013-02-04 04:24:00,23.8,16.0,29.73,WNW,292,1.4,7.2,69,0.00,,,0.00,Rainwise IP-100,2013-02-04 09:24:00,
2013-02-04 04:29:00,23.7,16.0,29.72,WNW,292,0.0,5.1,69,0.00,,,0.00,Rainwise IP-100,2013-02-04 09:29:00,
2013-02-04 04:34:00,23.7,16.0,29.73,NW,315,1.9,8.2,69,0.00,,,0.00,Rainwise IP-100,2013-02-04 09:34:00,
2013-02-04 04:39:00,23.8,16.0,29.73,West,270,1.2,6.5,69,0.00,,,0.00,Rainwise IP-100,2013-02-04 09:39:00,
2013-02-04 04:44:00,23.8,16.0,29.73,West,270,2.6,6.5,69,0.00,,,0.00,Rainwise IP-100,2013-02-04 09:44:00,
2013-02-04 04:49:00,23.9,16.0,29.73,West,270,5.8,9.6,69,0.00,,,0.00,Rainwise IP-100,2013-02-04 09:49:00,
2013-02-04 04:54:00,24.0,16.0,29.74,NNW,337,2.1,8.4,70,0.00,,,0.00,Rainwise IP-100,2013-02-04 09:54:00,
2013-02-04 04:59:00,24.0,16.0,29.73,WNW,292,4.9,5.4,70,0.00,,,0.00,Rainwise IP-100,2013-02-04 09:59:00,
2013-02-04 05:04:00,23.9,16.0,29.73,West,270,0.0,6.1,70,0.00,,,0.00,Rainwise IP-100,2013-02-04 10:04:00,
2013-02-04 05:09:00,23.8,16.0,29.74,WSW,247,1.6,3.7,70,0.00,,,0.00,Rainwise IP-100,2013-02-04 10:09:00,
2013-02-04 05:14:00,23.8,16.0,29.74,NW,315,0.0,4.4,71,0.00,,,0.00,Rainwise IP-100,2013-02-04 10:14:00,
2013-02-04 05:19:00,23.9,16.0,29.74,WNW,292,2.8,9.8,70,0.00,,,0.00,Rainwise IP-100,2013-02-04 10:19:00,
2013-02-04 05:24:00,24.0,16.0,29.75,West,270,1.6,5.4,70,0.00,,,0.00,Rainwise IP-100,2013-02-04 10:24:00,
2013-02-04 05:29:00,24.0,16.0,29.74,West,270,2.6,6.8,70,0.00,,,0.00,Rainwise IP-100,2013-02-04 10:29:00,
2013-02-04 05:34:00,24.1,16.0,29.74,West,270,1.4,7.7,70,0.00,,,0.00,Rainwise IP-100,2013-02-04 10:34:00,
2013-02-04 05:39:00,24.0,16.0,29.75,NW,315,2.6,5.8,70,0.00,,,0.00,Rainwise IP-100,2013-02-04 10:39:00,
2013-02-04 05:44:00,23.9,16.0,29.75,SW,225,0.0,6.3,70,0.00,,,0.00,Rainwise IP-100,2013-02-04 10:44:00,
2013-02-04 05:49:00,23.9,16.0,29.75,WSW,247,3.7,5.4,70,0.00,,,0.00,Rainwise IP-100,2013-02-04 10:49:00,
2013-02-04 05:54:00,23.8,16.0,29.76,NW,315,2.6,6.1,70,0.00,,,0.00,Rainwise IP-100,2013-02-04 10:54:00,
2013-02-04 05:59:00,23.8,16.0,29.75,WNW,292,2.1,5.8,70,0.00,,,0.00,Rainwise IP-100,2013-02-04 10:59:00,
2013-02-04 06:04:00,23.7,16.0,29.76,West,270,2.1,6.1,71,0.00,,,0.00,Rainwise IP-100,2013-02-04 11:04:00,
2013-02-04 06:09:00,23.6,16.0,29.75,WSW,247,6.5,6.5,71,0.00,,,0.00,Rainwise IP-100,2013-02-04 11:09:00,
2013-02-04 06:14:00,23.7,16.0,29.76,West,270,2.8,7.5,72,0.00,,,0.00,Rainwise IP-100,2013-02-04 11:14:00,
2013-02-04 06:19:00,23.6,16.0,29.76,NNW,337,0.0,5.6,72,0.00,,,0.00,Rainwise IP-100,2013-02-04 11:19:00,
2013-02-04 06:24:00,23.7,16.0,29.76,North,360,1.4,5.8,72,0.00,,,0.00,Rainwise IP-100,2013-02-04 11:24:00,
2013-02-04 06:29:00,23.6,16.0,29.76,NW,315,1.6,8.2,72,0.00,,,0.00,Rainwise IP-100,2013-02-04 11:29:00,
2013-02-04 06:34:00,23.6,16.0,29.76,WNW,292,2.6,7.2,73,0.00,,,0.00,Rainwise IP-100,2013-02-04 11:34:00,
2013-02-04 06:39:00,23.7,16.0,29.76,SW,225,4.4,8.4,73,0.00,,,0.00,Rainwise IP-100,2013-02-04 11:39:00,
2013-02-04 06:44:00,23.7,16.0,29.76,NNW,337,5.6,9.6,73,0.00,,,0.00,Rainwise IP-100,2013-02-04 11:44:00,
2013-02-04 06:49:00,23.9,16.0,29.77,NW,315,5.4,11.7,73,0.00,,,0.00,Rainwise IP-100,2013-02-04 11:49:00,
2013-02-04 06:54:00,24.1,16.0,29.77,NE,45,5.1,12.4,72,0.00,,,0.00,Rainwise IP-100,2013-02-04 11:54:00,
2013-02-04 06:59:00,24.1,16.0,29.77,NNE,22,4.9,10.7,72,0.00,,,0.00,Rainwise IP-100,2013-02-04 11:59:00,
2013-02-04 07:04:00,24.1,16.0,29.77,WNW,292,9.1,11.7,72,0.00,,,0.00,Rainwise IP-100,2013-02-04 12:04:00,
2013-02-04 07:09:00,24.1,16.0,29.77,WNW,292,5.1,12.4,72,0.00,,,0.00,Rainwise IP-100,2013-02-04 12:09:00,
2013-02-04 07:14:00,24.0,16.0,29.77,NW,315,8.6,8.6,72,0.00,,,0.00,Rainwise IP-100,2013-02-04 12:14:00,
2013-02-04 07:19:00,24.0,16.0,29.78,NNW,337,3.0,11.7,72,0.00,,,0.00,Rainwise IP-100,2013-02-04 12:19:00,
2013-02-04 07:24:00,24.0,16.0,29.78,WNW,292,4.4,13.3,72,0.00,,,0.00,Rainwise IP-100,2013-02-04 12:24:00,
2013-02-04 07:29:00,24.1,16.0,29.78,NW,315,6.1,13.5,71,0.00,,,0.00,Rainwise IP-100,2013-02-04 12:29:00,
2013-02-04 07:34:00,24.2,16.0,29.79,NNW,337,3.7,13.1,71,0.00,,,0.00,Rainwise IP-100,2013-02-04 12:34:00,
2013-02-04 07:39:00,24.2,16.0,29.78,WNW,292,7.5,9.6,71,0.00,,,0.00,Rainwise IP-100,2013-02-04 12:39:00,
2013-02-04 07:44:00,24.2,16.0,29.78,North,360,0.0,12.6,71,0.00,,,0.00,Rainwise IP-100,2013-02-04 12:44:00,
2013-02-04 07:49:00,24.3,16.0,29.79,NNW,337,5.1,9.3,71,0.00,,,0.00,Rainwise IP-100,2013-02-04 12:49:00,
2013-02-04 07:54:00,24.4,16.0,29.79,NE,45,5.6,12.6,71,0.00,,,0.00,Rainwise IP-100,2013-02-04 12:54:00,
2013-02-04 07:59:00,24.5,18.0,29.79,West,270,5.8,12.1,70,0.00,,,0.00,Rainwise IP-100,2013-02-04 12:59:00,
2013-02-04 08:04:00,24.6,18.0,29.80,NW,315,7.9,11.2,69,0.00,,,0.00,Rainwise IP-100,2013-02-04 13:04:00,
2013-02-04 08:09:00,24.9,18.0,29.80,North,360,4.9,11.9,69,0.00,,,0.00,Rainwise IP-100,2013-02-04 13:09:00,
2013-02-04 08:14:00,25.0,18.0,29.79,WNW,292,11.0,15.4,69,0.00,,,0.00,Rainwise IP-100,2013-02-04 13:14:00,
2013-02-04 08:19:00,25.1,18.0,29.80,WSW,247,4.0,13.8,68,0.00,,,0.00,Rainwise IP-100,2013-02-04 13:19:00,
2013-02-04 08:24:00,25.1,18.0,29.80,NNW,337,5.8,15.2,68,0.00,,,0.00,Rainwise IP-100,2013-02-04 13:24:00,
2013-02-04 08:29:00,25.2,18.0,29.80,WNW,292,2.8,13.5,68,0.00,,,0.00,Rainwise IP-100,2013-02-04 13:29:00,
2013-02-04 08:34:00,25.3,16.0,29.80,NNW,337,2.6,14.5,67,0.00,,,0.00,Rainwise IP-100,2013-02-04 13:34:00,
2013-02-04 08:39:00,25.3,16.0,29.80,NW,315,8.6,15.2,66,0.00,,,0.00,Rainwise IP-100,2013-02-04 13:39:00,
2013-02-04 08:44:00,25.4,16.0,29.80,NW,315,7.9,14.5,66,0.00,,,0.00,Rainwise IP-100,2013-02-04 13:44:00,
2013-02-04 08:49:00,25.9,16.0,29.80,North,360,5.6,10.5,65,0.00,,,0.00,Rainwise IP-100,2013-02-04 13:49:00,
2013-02-04 08:54:00,26.1,16.0,29.80,West,270,1.9,11.0,64,0.00,,,0.00,Rainwise IP-100,2013-02-04 13:54:00,
2013-02-04 08:59:00,26.0,16.0,29.80,NNW,337,6.1,16.3,64,0.00,,,0.00,Rainwise IP-100,2013-02-04 13:59:00,
2013-02-04 09:04:00,26.0,16.0,29.80,North,360,2.8,14.7,63,0.00,,,0.00,Rainwise IP-100,2013-02-04 14:04:00,
2013-02-04 09:09:00,26.2,16.0,29.81,WNW,292,5.1,11.9,63,0.00,,,0.00,Rainwise IP-100,2013-02-04 14:09:00,
2013-02-04 09:14:00,26.5,16.0,29.81,NNW,337,7.5,15.2,63,0.00,,,0.00,Rainwise IP-100,2013-02-04 14:14:00,
2013-02-04 09:19:00,26.5,16.0,29.80,SW,225,8.6,21.5,62,0.00,,,0.00,Rainwise IP-100,2013-02-04 14:19:00,
2013-02-04 09:24:00,26.4,16.0,29.80,West,270,9.1,13.3,61,0.00,,,0.00,Rainwise IP-100,2013-02-04 14:24:00,
2013-02-04 09:29:00,26.5,16.0,29.80,NNW,337,8.6,16.8,61,0.00,,,0.00,Rainwise IP-100,2013-02-04 14:29:00,
2013-02-04 09:34:00,26.7,16.0,29.80,North,360,7.7,16.3,60,0.00,,,0.00,Rainwise IP-100,2013-02-04 14:34:00,
2013-02-04 09:39:00,27.1,16.0,29.81,NNW,337,5.1,15.6,60,0.00,,,0.00,Rainwise IP-100,2013-02-04 14:39:00,
2013-02-04 09:44:00,27.3,16.0,29.81,NW,315,7.0,14.7,59,0.00,,,0.00,Rainwise IP-100,2013-02-04 14:44:00,
2013-02-04 09:49:00,27.1,16.0,29.81,WNW,292,7.7,14.0,59,0.00,,,0.00,Rainwise IP-100,2013-02-04 14:49:00,
2013-02-04 09:54:00,27.0,16.0,29.81,NW,315,3.7,16.1,58,0.00,,,0.00,Rainwise IP-100,2013-02-04 14:54:00,
2013-02-04 09:59:00,27.2,16.0,29.81,West,270,1.6,14.5,58,0.00,,,0.00,Rainwise IP-100,2013-02-04 14:59:00,
2013-02-04 10:04:00,27.3,16.0,29.81,WNW,292,7.7,20.1,57,0.00,,,0.00,Rainwise IP-100,2013-02-04 15:04:00,
2013-02-04 10:09:00,27.5,16.0,29.82,West,270,7.0,13.1,57,0.00,,,0.00,Rainwise IP-100,2013-02-04 15:09:00,
2013-02-04 10:14:00,27.7,14.0,29.81,SW,225,9.8,12.6,56,0.00,,,0.00,Rainwise IP-100,2013-02-04 15:14:00,
2013-02-04 10:19:00,27.9,14.0,29.81,NW,315,11.0,17.0,55,0.00,,,0.00,Rainwise IP-100,2013-02-04 15:19:00,
2013-02-04 10:24:00,28.2,14.0,29.82,WSW,247,1.9,13.3,54,0.00,,,0.00,Rainwise IP-100,2013-02-04 15:24:00,
2013-02-04 10:29:00,28.5,14.0,29.82,SW,225,2.1,14.7,53,0.00,,,0.00,Rainwise IP-100,2013-02-04 15:29:00,
2013-02-04 10:34:00,28.7,14.0,29.82,SSW,202,0.0,17.3,52,0.00,,,0.00,Rainwise IP-100,2013-02-04 15:34:00,
2013-02-04 10:39:00,28.7,14.0,29.82,West,270,10.3,19.8,51,0.00,,,0.00,Rainwise IP-100,2013-02-04 15:39:00,
2013-02-04 10:44:00,28.5,14.0,29.82,West,270,4.7,14.7,50,0.00,,,0.00,Rainwise IP-100,2013-02-04 15:44:00,
2013-02-04 10:49:00,28.4,14.0,29.82,North,360,6.8,13.3,50,0.00,,,0.00,Rainwise IP-100,2013-02-04 15:49:00,
2013-02-04 10:54:00,28.7,14.0,29.82,West,270,4.4,16.6,49,0.00,,,0.00,Rainwise IP-100,2013-02-04 15:54:00,
2013-02-04 10:59:00,29.0,14.0,29.81,NW,315,7.7,15.2,49,0.00,,,0.00,Rainwise IP-100,2013-02-04 15:59:00,
2013-02-04 11:04:00,29.3,14.0,29.82,NNW,337,7.9,12.8,48,0.00,,,0.00,Rainwise IP-100,2013-02-04 16:04:00,
2013-02-04 11:09:00,29.3,14.0,29.82,NNW,337,4.4,17.3,47,0.00,,,0.00,Rainwise IP-100,2013-02-04 16:09:00,
2013-02-04 11:14:00,29.1,14.0,29.81,WNW,292,5.4,20.3,47,0.00,,,0.00,Rainwise IP-100,2013-02-04 16:14:00,
2013-02-04 11:19:00,29.0,14.0,29.81,NNE,22,2.1,15.2,47,0.00,,,0.00,Rainwise IP-100,2013-02-04 16:19:00,
2013-02-04 11:24:00,29.0,14.0,29.81,WNW,292,7.5,19.8,47,0.00,,,0.00,Rainwise IP-100,2013-02-04 16:24:00,
2013-02-04 11:29:00,29.1,14.0,29.81,WNW,292,9.8,13.8,47,0.00,,,0.00,Rainwise IP-100,2013-02-04 16:29:00,
2013-02-04 11:34:00,29.2,14.0,29.81,WSW,247,7.9,11.9,47,0.00,,,0.00,Rainwise IP-100,2013-02-04 16:34:00,
2013-02-04 11:39:00,29.7,14.0,29.80,WNW,292,5.4,13.3,46,0.00,,,0.00,Rainwise IP-100,2013-02-04 16:39:00,
2013-02-04 11:44:00,30.0,14.0,29.80,North,360,5.1,13.5,46,0.00,,,0.00,Rainwise IP-100,2013-02-04 16:44:00,
2013-02-04 11:49:00,29.8,14.0,29.80,WSW,247,0.0,18.0,45,0.00,,,0.00,Rainwise IP-100,2013-02-04 16:49:00,
2013-02-04 11:54:00,29.3,11.0,29.80,NNW,337,7.2,15.4,45,0.00,,,0.00,Rainwise IP-100,2013-02-04 16:54:00,
2013-02-04 11:59:00,29.2,11.0,29.80,NNW,337,4.7,15.9,44,0.00,,,0.00,Rainwise IP-100,2013-02-04 16:59:00,
2013-02-04 12:04:00,29.3,11.0,29.80,WNW,292,2.3,19.4,44,0.00,,,0.00,Rainwise IP-100,2013-02-04 17:04:00,
2013-02-04 12:09:00,29.2,11.0,29.80,NNW,337,7.9,15.6,44,0.00,,,0.00,Rainwise IP-100,2013-02-04 17:09:00,
2013-02-04 12:14:00,28.6,11.0,29.80,WNW,292,4.2,16.3,44,0.00,,,0.00,Rainwise IP-100,2013-02-04 17:14:00,
2013-02-04 12:19:00,28.4,11.0,29.81,NNW,337,9.8,11.9,44,0.00,,,0.00,Rainwise IP-100,2013-02-04 17:19:00,
2013-02-04 12:24:00,28.6,11.0,29.80,NW,315,5.4,14.7,44,0.00,,,0.00,Rainwise IP-100,2013-02-04 17:24:00,
2013-02-04 12:29:00,28.3,11.0,29.80,WNW,292,3.0,15.4,44,0.00,,,0.00,Rainwise IP-100,2013-02-04 17:29:00,
2013-02-04 12:34:00,28.1,11.0,29.80,NNW,337,3.7,14.7,44,0.00,,,0.00,Rainwise IP-100,2013-02-04 17:34:00,
2013-02-04 12:39:00,28.4,11.0,29.79,West,270,3.5,10.5,45,0.00,,,0.00,Rainwise IP-100,2013-02-04 17:39:00,
2013-02-04 12:44:00,29.2,11.0,29.79,West,270,5.4,14.2,45,0.00,,,0.00,Rainwise IP-100,2013-02-04 17:44:00,
2013-02-04 12:49:00,29.9,11.0,29.79,WSW,247,3.7,20.3,44,0.00,,,0.00,Rainwise IP-100,2013-02-04 17:49:00,
2013-02-04 12:54:00,30.0,11.0,29.79,WSW,247,11.4,21.2,43,0.00,,,0.00,Rainwise IP-100,2013-02-04 17:54:00,
2013-02-04 12:59:00,30.0,11.0,29.79,WNW,292,1.2,19.4,43,0.00,,,0.00,Rainwise IP-100,2013-02-04 17:59:00,
2013-02-04 13:04:00,30.2,11.0,29.79,West,270,15.2,19.1,42,0.00,,,0.00,Rainwise IP-100,2013-02-04 18:04:00,
2013-02-04 13:09:00,30.3,11.0,29.79,WSW,247,4.7,19.8,42,0.00,,,0.00,Rainwise IP-100,2013-02-04 18:09:00,
2013-02-04 13:14:00,30.3,11.0,29.79,West,270,14.9,18.4,41,0.00,,,0.00,Rainwise IP-100,2013-02-04 18:14:00,
2013-02-04 13:19:00,30.0,11.0,29.78,SW,225,9.3,23.1,41,0.00,,,0.00,Rainwise IP-100,2013-02-04 18:19:00,
2013-02-04 13:24:00,30.1,11.0,29.79,WSW,247,1.2,13.5,41,0.00,,,0.00,Rainwise IP-100,2013-02-04 18:24:00,
2013-02-04 13:29:00,30.2,11.0,29.79,WNW,292,11.0,17.7,41,0.00,,,0.00,Rainwise IP-100,2013-02-04 18:29:00,
2013-02-04 13:34:00,29.6,11.0,29.79,WSW,247,4.0,16.6,41,0.00,,,0.00,Rainwise IP-100,2013-02-04 18:34:00,
2013-02-04 13:39:00,29.5,11.0,29.80,NW,315,7.2,21.0,42,0.00,,,0.00,Rainwise IP-100,2013-02-04 18:39:00,
2013-02-04 13:44:00,29.3,11.0,29.80,NW,315,8.2,18.2,41,0.00,,,0.00,Rainwise IP-100,2013-02-04 18:44:00,
2013-02-04 13:49:00,28.7,11.0,29.80,WSW,247,2.1,15.4,41,0.00,,,0.00,Rainwise IP-100,2013-02-04 18:49:00,
2013-02-04 13:54:00,28.5,11.0,29.80,WNW,292,6.1,15.2,42,0.00,,,0.00,Rainwise IP-100,2013-02-04 18:54:00,
2013-02-04 13:59:00,28.8,11.0,29.80,NNW,337,2.6,13.8,43,0.00,,,0.00,Rainwise IP-100,2013-02-04 18:59:00,
2013-02-04 14:04:00,28.5,11.0,29.80,NNW,337,6.1,12.6,43,0.00,,,0.00,Rainwise IP-100,2013-02-04 19:04:00,
2013-02-04 14:09:00,28.3,8.0,29.81,WSW,247,8.2,13.5,43,0.00,,,0.00,Rainwise IP-100,2013-02-04 19:09:00,
2013-02-04 14:14:00,28.6,11.0,29.80,West,270,4.4,15.4,43,0.00,,,0.00,Rainwise IP-100,2013-02-04 19:14:00,
2013-02-04 14:19:00,28.8,11.0,29.80,SW,225,7.5,13.5,43,0.00,,,0.00,Rainwise IP-100,2013-02-04 19:19:00,
2013-02-04 14:24:00,28.5,11.0,29.80,WNW,292,6.3,12.1,43,0.00,,,0.00,Rainwise IP-100,2013-02-04 19:24:00,
2013-02-04 14:29:00,28.4,8.0,29.81,North,360,6.3,14.7,43,0.00,,,0.00,Rainwise IP-100,2013-02-04 19:29:00,
2013-02-04 14:34:00,29.0,11.0,29.80,WNW,292,11.9,13.5,42,0.00,,,0.00,Rainwise IP-100,2013-02-04 19:34:00,
2013-02-04 14:39:00,29.5,11.0,29.81,NW,315,4.4,14.0,41,0.00,,,0.00,Rainwise IP-100,2013-02-04 19:39:00,
2013-02-04 14:44:00,29.8,11.0,29.81,West,270,6.1,15.6,41,0.00,,,0.00,Rainwise IP-100,2013-02-04 19:44:00,
2013-02-04 14:49:00,30.2,11.0,29.81,West,270,9.3,17.5,40,0.00,,,0.00,Rainwise IP-100,2013-02-04 19:49:00,
2013-02-04 14:54:00,30.1,11.0,29.82,NNE,22,0.0,14.7,40,0.00,,,0.00,Rainwise IP-100,2013-02-04 19:54:00,
2013-02-04 14:59:00,29.6,11.0,29.81,WSW,247,3.7,19.4,40,0.00,,,0.00,Rainwise IP-100,2013-02-04 19:59:00,
2013-02-04 15:04:00,29.2,11.0,29.82,West,270,8.2,12.6,41,0.00,,,0.00,Rainwise IP-100,2013-02-04 20:04:00,
2013-02-04 15:09:00,28.9,11.0,29.82,SW,225,7.0,18.2,41,0.00,,,0.00,Rainwise IP-100,2013-02-04 20:09:00,
2013-02-04 15:14:00,28.9,11.0,29.82,WSW,247,7.5,9.8,42,0.00,,,0.00,Rainwise IP-100,2013-02-04 20:14:00,
2013-02-04 15:19:00,29.5,11.0,29.81,NE,45,2.3,10.7,41,0.00,,,0.00,Rainwise IP-100,2013-02-04 20:19:00,
2013-02-04 15:24:00,29.5,11.0,29.81,WSW,247,12.1,18.2,41,0.00,,,0.00,Rainwise IP-100,2013-02-04 20:24:00,
2013-02-04 15:29:00,29.5,11.0,29.81,West,270,10.0,16.6,41,0.00,,,0.00,Rainwise IP-100,2013-02-04 20:29:00,
2013-02-04 15:34:00,29.7,11.0,29.81,WSW,247,7.9,18.4,41,0.00,,,0.00,Rainwise IP-100,2013-02-04 20:34:00,
2013-02-04 15:39:00,29.4,8.0,29.82,West,270,5.4,15.4,40,0.00,,,0.00,Rainwise IP-100,2013-02-04 20:39:00,
2013-02-04 15:44:00,29.2,8.0,29.81,WSW,247,2.8,12.8,40,0.00,,,0.00,Rainwise IP-100,2013-02-04 20:44:00,
2013-02-04 15:49:00,29.3,8.0,29.82,WSW,247,19.8,19.8,40,0.00,,,0.00,Rainwise IP-100,2013-02-04 20:49:00,
2013-02-04 15:54:00,29.5,11.0,29.81,West,270,8.9,19.8,40,0.00,,,0.00,Rainwise IP-100,2013-02-04 20:54:00,
2013-02-04 15:59:00,29.5,11.0,29.82,WSW,247,5.8,11.9,40,0.00,,,0.00,Rainwise IP-100,2013-02-04 20:59:00,
2013-02-04 16:04:00,29.5,11.0,29.82,WSW,247,10.0,10.0,40,0.00,,,0.00,Rainwise IP-100,2013-02-04 21:04:00,
2013-02-04 16:09:00,29.5,11.0,29.82,NW,315,3.7,18.9,40,0.00,,,0.00,Rainwise IP-100,2013-02-04 21:09:00,
2013-02-04 16:14:00,29.3,8.0,29.82,SW,225,2.1,15.9,40,0.00,,,0.00,Rainwise IP-100,2013-02-04 21:14:00,
2013-02-04 16:19:00,29.2,8.0,29.81,West,270,6.5,13.8,40,0.00,,,0.00,Rainwise IP-100,2013-02-04 21:19:00,
2013-02-04 16:24:00,29.2,8.0,29.81,WSW,247,14.7,14.7,40,0.00,,,0.00,Rainwise IP-100,2013-02-04 21:24:00,
2013-02-04 16:29:00,29.0,11.0,29.81,WNW,292,8.4,16.6,41,0.00,,,0.00,Rainwise IP-100,2013-02-04 21:29:00,
2013-02-04 16:34:00,28.9,11.0,29.82,NW,315,4.4,11.0,41,0.00,,,0.00,Rainwise IP-100,2013-02-04 21:34:00,
2013-02-04 16:39:00,28.8,11.0,29.82,NW,315,4.0,13.1,41,0.00,,,0.00,Rainwise IP-100,2013-02-04 21:39:00,
2013-02-04 16:44:00,28.5,11.0,29.82,WNW,292,4.0,14.0,41,0.00,,,0.00,Rainwise IP-100,2013-02-04 21:44:00,
2013-02-04 16:49:00,28.2,8.0,29.82,SSW,202,9.8,16.1,41,0.00,,,0.00,Rainwise IP-100,2013-02-04 21:49:00,
2013-02-04 16:54:00,28.0,8.0,29.82,WSW,247,6.1,11.2,41,0.00,,,0.00,Rainwise IP-100,2013-02-04 21:54:00,
2013-02-04 16:59:00,27.9,8.0,29.82,WNW,292,5.1,16.8,42,0.00,,,0.00,Rainwise IP-100,2013-02-04 21:59:00,
2013-02-04 17:04:00,27.9,8.0,29.83,WSW,247,2.3,10.5,42,0.00,,,0.00,Rainwise IP-100,2013-02-04 22:04:00,
2013-02-04 17:09:00,27.8,8.0,29.83,West,270,1.2,13.3,42,0.00,,,0.00,Rainwise IP-100,2013-02-04 22:09:00,
2013-02-04 17:14:00,27.6,8.0,29.83,West,270,5.6,9.6,42,0.00,,,0.00,Rainwise IP-100,2013-02-04 22:14:00,
2013-02-04 17:19:00,27.4,8.0,29.83,WNW,292,0.0,11.2,43,0.00,,,0.00,Rainwise IP-100,2013-02-04 22:19:00,
2013-02-04 17:24:00,27.4,8.0,29.84,West,270,1.4,9.1,43,0.00,,,0.00,Rainwise IP-100,2013-02-04 22:24:00,
2013-02-04 17:29:00,27.4,8.0,29.84,WNW,292,3.3,9.3,43,0.00,,,0.00,Rainwise IP-100,2013-02-04 22:29:00,
2013-02-04 17:34:00,27.3,11.0,29.84,NNW,337,1.4,7.2,44,0.00,,,0.00,Rainwise IP-100,2013-02-04 22:34:00,
2013-02-04 17:39:00,27.2,11.0,29.84,WNW,292,5.4,8.6,44,0.00,,,0.00,Rainwise IP-100,2013-02-04 22:39:00,
2013-02-04 17:44:00,27.1,11.0,29.85,WSW,247,4.4,7.0,44,0.00,,,0.00,Rainwise IP-100,2013-02-04 22:44:00,
2013-02-04 17:49:00,27.1,11.0,29.85,WNW,292,5.6,7.7,44,0.00,,,0.00,Rainwise IP-100,2013-02-04 22:49:00,
2013-02-04 17:54:00,26.9,11.0,29.85,West,270,2.8,7.9,44,0.00,,,0.00,Rainwise IP-100,2013-02-04 22:54:00,
2013-02-04 17:59:00,26.8,11.0,29.86,WSW,247,4.7,7.0,45,0.00,,,0.00,Rainwise IP-100,2013-02-04 22:59:00,
2013-02-04 18:04:00,26.6,11.0,29.86,WNW,292,1.4,4.9,46,0.00,,,0.00,Rainwise IP-100,2013-02-04 23:04:00,
2013-02-04 18:09:00,26.4,11.0,29.86,WSW,247,8.2,8.2,47,0.00,,,0.00,Rainwise IP-100,2013-02-04 23:09:00,
2013-02-04 18:14:00,26.4,11.0,29.86,WSW,247,9.3,9.3,47,0.00,,,0.00,Rainwise IP-100,2013-02-04 23:14:00,
2013-02-04 18:19:00,26.7,11.0,29.86,West,270,6.1,11.7,47,0.00,,,0.00,Rainwise IP-100,2013-02-04 23:19:00,
2013-02-04 18:24:00,27.0,11.0,29.87,WNW,292,4.4,11.4,46,0.00,,,0.00,Rainwise IP-100,2013-02-04 23:24:00,
2013-02-04 18:29:00,27.0,11.0,29.87,West,270,0.0,8.9,46,0.00,,,0.00,Rainwise IP-100,2013-02-04 23:29:00,
2013-02-04 18:34:00,26.8,11.0,29.87,WNW,292,4.7,9.8,47,0.00,,,0.00,Rainwise IP-100,2013-02-04 23:34:00,
2013-02-04 18:39:00,26.7,11.0,29.87,WSW,247,3.0,7.7,47,0.00,,,0.00,Rainwise IP-100,2013-02-04 23:39:00,
2013-02-04 18:44:00,26.6,11.0,29.87,West,270,0.0,10.3,47,0.00,,,0.00,Rainwise IP-100,2013-02-04 23:44:00,
2013-02-04 18:49:00,26.7,11.0,29.87,WSW,247,7.5,8.6,47,0.00,,,0.00,Rainwise IP-100,2013-02-04 23:49:00,
2013-02-04 18:54:00,26.8,11.0,29.87,WNW,292,4.0,9.1,46,0.00,,,0.00,Rainwise IP-100,2013-02-04 23:54:00,
2013-02-04 18:59:00,26.8,11.0,29.87,West,270,3.3,8.4,46,0.00,,,0.00,Rainwise IP-100,2013-02-04 23:59:00,
2013-02-04 19:04:00,26.8,11.0,29.88,WNW,292,4.0,6.8,47,0.00,,,0.00,Rainwise IP-100,2013-02-05 00:04:00,
2013-02-04 19:09:00,26.7,11.0,29.88,West,270,4.7,8.9,47,0.00,,,0.00,Rainwise IP-100,2013-02-05 00:09:00,
2013-02-04 19:14:00,26.6,11.0,29.88,WSW,247,3.0,8.9,47,0.00,,,0.00,Rainwise IP-100,2013-02-05 00:14:00,
2013-02-04 19:19:00,26.5,11.0,29.88,NW,315,3.7,8.6,47,0.00,,,0.00,Rainwise IP-100,2013-02-05 00:19:00,
2013-02-04 19:24:00,26.5,11.0,29.88,WSW,247,5.8,7.5,48,0.00,,,0.00,Rainwise IP-100,2013-02-05 00:24:00,
2013-02-04 19:29:00,26.4,11.0,29.88,WSW,247,2.6,7.0,48,0.00,,,0.00,Rainwise IP-100,2013-02-05 00:29:00,
2013-02-04 19:34:00,26.3,11.0,29.89,WSW,247,4.9,6.1,48,0.00,,,0.00,Rainwise IP-100,2013-02-05 00:34:00,
2013-02-04 19:39:00,26.1,11.0,29.88,WSW,247,4.4,5.6,49,0.00,,,0.00,Rainwise IP-100,2013-02-05 00:39:00,
2013-02-04 19:44:00,26.0,11.0,29.88,West,270,4.4,5.1,49,0.00,,,0.00,Rainwise IP-100,2013-02-05 00:44:00,
2013-02-04 19:49:00,26.0,11.0,29.89,West,270,0.0,7.5,49,0.00,,,0.00,Rainwise IP-100,2013-02-05 00:49:00,
2013-02-04 19:54:00,26.0,11.0,29.89,West,270,0.0,7.0,49,0.00,,,0.00,Rainwise IP-100,2013-02-05 00:54:00,
2013-02-04 19:59:00,26.1,11.0,29.89,SW,225,2.6,9.6,49,0.00,,,0.00,Rainwise IP-100,2013-02-05 00:59:00,
2013-02-04 20:04:00,26.1,11.0,29.89,WSW,247,1.4,7.7,49,0.00,,,0.00,Rainwise IP-100,2013-02-05 01:04:00,
2013-02-04 20:09:00,26.0,11.0,29.89,WSW,247,1.4,7.5,49,0.00,,,0.00,Rainwise IP-100,2013-02-05 01:09:00,
2013-02-04 20:14:00,25.9,11.0,29.89,WNW,292,1.9,7.5,49,0.00,,,0.00,Rainwise IP-100,2013-02-05 01:14:00,
2013-02-04 20:19:00,25.8,11.0,29.90,NW,315,3.0,6.3,50,0.00,,,0.00,Rainwise IP-100,2013-02-05 01:19:00,
2013-02-04 20:24:00,25.7,11.0,29.90,West,270,3.5,7.2,50,0.00,,,0.00,Rainwise IP-100,2013-02-05 01:24:00,
2013-02-04 20:29:00,25.6,11.0,29.90,WSW,247,3.5,5.8,51,0.00,,,0.00,Rainwise IP-100,2013-02-05 01:29:00,
2013-02-04 20:34:00,25.7,11.0,29.91,West,270,8.6,8.6,51,0.00,,,0.00,Rainwise IP-100,2013-02-05 01:34:00,
2013-02-04 20:39:00,25.8,11.0,29.91,West,270,3.3,8.9,50,0.00,,,0.00,Rainwise IP-100,2013-02-05 01:39:00,
2013-02-04 20:44:00,25.8,11.0,29.92,West,270,7.0,8.4,50,0.00,,,0.00,Rainwise IP-100,2013-02-05 01:44:00,
2013-02-04 20:49:00,25.7,11.0,29.92,WSW,247,2.8,7.5,50,0.00,,,0.00,Rainwise IP-100,2013-02-05 01:49:00,
2013-02-04 20:54:00,25.6,11.0,29.92,NW,315,4.0,7.0,51,0.00,,,0.00,Rainwise IP-100,2013-02-05 01:54:00,
2013-02-04 20:59:00,25.5,11.0,29.92,NNW,337,2.6,7.5,51,0.00,,,0.00,Rainwise IP-100,2013-02-05 01:59:00,
2013-02-04 21:04:00,25.5,11.0,29.92,West,270,1.4,6.3,51,0.00,,,0.00,Rainwise IP-100,2013-02-05 02:04:00,
2013-02-04 21:09:00,25.5,11.0,29.92,West,270,2.8,6.3,51,0.00,,,0.00,Rainwise IP-100,2013-02-05 02:09:00,
2013-02-04 21:14:00,25.5,11.0,29.92,West,270,5.8,7.9,51,0.00,,,0.00,Rainwise IP-100,2013-02-05 02:14:00,
2013-02-04 21:19:00,25.5,11.0,29.92,West,270,1.9,7.7,51,0.00,,,0.00,Rainwise IP-100,2013-02-05 02:19:00,
2013-02-04 21:24:00,25.5,11.0,29.92,West,270,6.1,8.6,51,0.00,,,0.00,Rainwise IP-100,2013-02-05 02:24:00,
2013-02-04 21:29:00,25.5,11.0,29.92,WNW,292,6.3,7.2,51,0.00,,,0.00,Rainwise IP-100,2013-02-05 02:29:00,
2013-02-04 21:34:00,25.5,11.0,29.92,NNW,337,2.1,7.9,50,0.00,,,0.00,Rainwise IP-100,2013-02-05 02:34:00,
2013-02-04 21:39:00,25.5,11.0,29.92,West,270,1.9,6.1,50,0.00,,,0.00,Rainwise IP-100,2013-02-05 02:39:00,
2013-02-04 21:44:00,25.5,11.0,29.92,West,270,2.8,7.7,50,0.00,,,0.00,Rainwise IP-100,2013-02-05 02:44:00,
2013-02-04 21:49:00,25.5,11.0,29.92,WSW,247,2.1,5.8,50,0.00,,,0.00,Rainwise IP-100,2013-02-05 02:49:00,
2013-02-04 21:54:00,25.4,11.0,29.92,West,270,3.0,6.5,50,0.00,,,0.00,Rainwise IP-100,2013-02-05 02:54:00,
2013-02-04 21:59:00,25.3,11.0,29.92,West,270,4.0,9.8,51,0.00,,,0.00,Rainwise IP-100,2013-02-05 02:59:00,
2013-02-04 22:04:00,25.5,11.0,29.92,West,270,8.2,11.0,50,0.00,,,0.00,Rainwise IP-100,2013-02-05 03:04:00,
2013-02-04 22:09:00,25.6,11.0,29.92,WNW,292,3.3,10.3,49,0.00,,,0.00,Rainwise IP-100,2013-02-05 03:09:00,
2013-02-04 22:14:00,25.6,11.0,29.92,WNW,292,2.6,7.7,49,0.00,,,0.00,Rainwise IP-100,2013-02-05 03:14:00,
2013-02-04 22:19:00,25.5,11.0,29.92,WSW,247,5.4,8.6,49,0.00,,,0.00,Rainwise IP-100,2013-02-05 03:19:00,
2013-02-04 22:24:00,25.6,11.0,29.92,WSW,247,8.9,9.3,48,0.00,,,0.00,Rainwise IP-100,2013-02-05 03:24:00,
2013-02-04 22:29:00,25.7,11.0,29.92,WSW,247,5.1,8.9,48,0.00,,,0.00,Rainwise IP-100,2013-02-05 03:29:00,
2013-02-04 22:34:00,25.7,11.0,29.93,WSW,247,3.0,10.3,48,0.00,,,0.00,Rainwise IP-100,2013-02-05 03:34:00,
2013-02-04 22:39:00,25.7,11.0,29.93,West,270,4.0,7.5,48,0.00,,,0.00,Rainwise IP-100,2013-02-05 03:39:00,
2013-02-04 22:44:00,25.7,11.0,29.92,WNW,292,1.2,9.8,48,0.00,,,0.00,Rainwise IP-100,2013-02-05 03:44:00,
2013-02-04 22:49:00,25.5,11.0,29.92,WNW,292,4.2,6.8,48,0.00,,,0.00,Rainwise IP-100,2013-02-05 03:49:00,
2013-02-04 22:54:00,25.3,11.0,29.93,WSW,247,4.0,9.3,48,0.00,,,0.00,Rainwise IP-100,2013-02-05 03:54:00,
2013-02-04 22:59:00,25.2,11.0,29.93,NNW,337,2.1,10.3,48,0.00,,,0.00,Rainwise IP-100,2013-02-05 03:59:00,
2013-02-04 23:04:00,25.0,11.0,29.93,SW,225,6.3,8.4,48,0.00,,,0.00,Rainwise IP-100,2013-02-05 04:04:00,
2013-02-04 23:09:00,25.0,11.0,29.93,WSW,247,1.9,10.5,48,0.00,,,0.00,Rainwise IP-100,2013-02-05 04:09:00,
2013-02-04 23:14:00,24.9,11.0,29.94,SW,225,6.1,9.1,48,0.00,,,0.00,Rainwise IP-100,2013-02-05 04:14:00,
2013-02-04 23:19:00,24.8,11.0,29.94,WNW,292,3.7,7.2,48,0.00,,,0.00,Rainwise IP-100,2013-02-05 04:19:00,
2013-02-04 23:24:00,24.8,11.0,29.94,West,270,4.7,9.3,48,0.00,,,0.00,Rainwise IP-100,2013-02-05 04:24:00,
2013-02-04 23:29:00,24.9,11.0,29.94,SSW,202,1.9,9.3,48,0.00,,,0.00,Rainwise IP-100,2013-02-05 04:29:00,
2013-02-04 23:34:00,24.9,11.0,29.94,WNW,292,0.0,6.3,48,0.00,,,0.00,Rainwise IP-100,2013-02-05 04:34:00,
2013-02-04 23:39:00,25.0,11.0,29.94,WSW,247,9.1,9.1,47,0.00,,,0.00,Rainwise IP-100,2013-02-05 04:39:00,
2013-02-04 23:44:00,25.1,11.0,29.93,NW,315,4.2,9.1,47,0.00,,,0.00,Rainwise IP-100,2013-02-05 04:44:00,
2013-02-04 23:49:00,25.2,8.0,29.94,WSW,247,2.6,10.3,46,0.00,,,0.00,Rainwise IP-100,2013-02-05 04:49:00,
2013-02-04 23:54:00,25.2,8.0,29.94,WNW,292,2.8,8.4,46,0.00,,,0.00,Rainwise IP-100,2013-02-05 04:54:00,
2013-02-04 23:59:00,25.2,8.0,29.94,NNW,337,2.1,8.2,46,0.00,,,0.00,Rainwise IP-100,2013-02-05 04:59:00,